[[{"header":{"parameterUnit":"m.s-1","parameterCategory":1,"la1":30.2991,"la2":30.254,"lo1":-89.0895,"lo2":-89.0444,"dy":0.0017,"dx":0.0017,"nx":28,"ny":28,"refTime":"2023-08-24T03:00:00:Z","depth":0,"parameterNumber":2,"parameterNumberName":"U-component_of_WINDS"},"data":[0,0,0,0,0,0,0,0,0,0,0,0,0,0,0,0,0,0,0,0,0,0,0,0,0,0,0,0,0,0,0,0,0,0,0,0,0,0,0,0,0,0,0,0,0,0,0,0,0,0,0,0,0,0,0,0,0,0,-0.5793,-0.5793,0,-0.5808,-0.5808,-0.5809,-0.5815,-0.5815,-0.5815,-0.5815,-0.5831,-0.5832,-0.5832,0,0,0,0,0,0,0,0,0,0,0,0,0,-0.577,-0.577,-0.5793,-0.5793,-0.5793,-0.5808,-0.5808,-0.5809,-0.5815,-0.5815,-0.5815,-0.5815,-0.5831,-0.5832,-0.5832,0,0,0,0,0,0,0,0,0,0,0,0,0,-0.5782,-0.577,-0.5793,-0.5798,-0.5799,-0.5808,-0.5808,-0.5809,-0.5815,-0.5815,-0.5815,-0.5815,-0.5831,-0.5832,-0.5832,-0.5837,0,0,-0.5834,-0.5835,0,0,0,0,0,0,0,0,-0.5781,-0.5783,-0.5797,-0.5798,-0.5799,-0.581,-0.5806,-0.5818,-0.5815,-0.5809,-0.5815,-0.5815,-0.5824,-0.5825,-0.5828,-0.5838,-0.5839,-0.5835,-0.5835,-0.5835,-0.5835,0,0,0,0,0,0,0,-0.578,-0.5782,-0.5799,-0.5797,-0.5798,-0.58,-0.5802,-0.5809,-0.5817,-0.581,-0.581,-0.5812,-0.5825,-0.5828,-0.5829,-0.5839,-0.5835,-0.5835,-0.5836,-0.5836,-0.5855,-0.5855,0,0,0,0,0,0,-0.5779,-0.5781,-0.5798,-0.5799,-0.579,-0.5801,-0.5803,-0.5806,-0.5817,-0.5818,-0.5812,-0.5812,-0.5827,-0.5828,-0.5829,-0.5837,-0.5835,-0.5836,-0.5836,-0.5855,-0.5855,-0.5855,0,0,0,0,0,0,-0.5778,-0.578,-0.5798,-0.5791,-0.5793,-0.5801,-0.5805,-0.5807,-0.581,-0.5818,-0.582,-0.5814,-0.5827,-0.5829,-0.5836,-0.5837,-0.5836,-0.5837,-0.5854,-0.5855,-0.5855,-0.5851,0,0,0,0,0,0,-0.5777,-0.578,-0.5782,-0.5791,-0.5793,-0.5803,-0.5805,-0.5807,-0.5811,-0.5811,-0.582,-0.5822,-0.5827,-0.5835,-0.5836,-0.5838,-0.5837,-0.5854,-0.5855,-0.5855,-0.5851,-0.5851,-0.5851,0,0,0,0,0,-0.5777,-0.578,-0.5782,-0.5784,-0.5796,-0.5803,-0.5805,-0.581,-0.5811,-0.5813,-0.5819,-0.5822,-0.5837,-0.5835,-0.5837,-0.5839,-0.5854,-0.5854,-0.5855,-0.5851,-0.5851,-0.5851,0,0,0,0,0,0,-0.5771,-0.5781,-0.5783,-0.5789,-0.5795,-0.5804,-0.5807,-0.581,-0.5816,-0.5817,-0.5823,-0.5825,-0.5832,-0.5836,-0.5834,-0.5845,-0.5846,-0.5846,-0.5842,-0.5842,-0.5842,-0.5841,-0.5838,0,0,0,0,0,-0.577,-0.5775,-0.5784,-0.5789,-0.5792,-0.5799,-0.5802,-0.5806,-0.5813,-0.5815,-0.5822,-0.5828,-0.5835,-0.5839,-0.5845,-0.5851,-0.5854,-0.5854,-0.5854,-0.5854,-0.5854,-0.5859,-0.5859,-0.5855,-0.5855,-0.5855,0,0,-0.5769,-0.5775,-0.5778,-0.5788,-0.5793,-0.5798,-0.5801,-0.5807,-0.5811,-0.5816,-0.5824,-0.5828,-0.5836,-0.5843,-0.5846,-0.5847,-0.5856,-0.5854,-0.5854,-0.5855,-0.5859,-0.5859,-0.586,-0.5856,-0.5856,-0.5855,0,0,-0.577,-0.5775,-0.5779,-0.5785,-0.5793,-0.5797,-0.5799,-0.5807,-0.5811,-0.5818,-0.5822,-0.5828,-0.5838,-0.5844,-0.5848,-0.5852,-0.5855,-0.5854,-0.5854,-0.5858,-0.5858,-0.5859,-0.5861,-0.5861,-0.5854,-0.5854,-0.5854,0,-0.5767,-0.5776,-0.5781,-0.5787,-0.5791,-0.5797,-0.5802,-0.5807,-0.5816,-0.5819,-0.582,-0.5834,-0.5839,-0.5848,-0.5849,-0.5852,-0.5854,-0.5853,-0.5858,-0.5858,-0.5859,-0.586,-0.5861,-0.5854,-0.5854,-0.5854,-0.5854,0,-0.5773,-0.5779,-0.5781,-0.5791,-0.5795,-0.58,-0.5807,-0.5812,-0.5815,-0.582,-0.5828,-0.5835,-0.5843,-0.5845,-0.5849,-0.5855,-0.5855,-0.5856,-0.5857,-0.5859,-0.5861,-0.5861,-0.5854,-0.5854,-0.5854,-0.5854,0,0,-0.577,-0.5783,-0.5784,-0.5788,-0.5798,-0.5802,-0.5808,-0.5816,-0.582,-0.5826,-0.5832,-0.5841,-0.5843,-0.5848,-0.5852,-0.5855,-0.5859,-0.5857,-0.5857,-0.5857,-0.5867,-0.5866,-0.5866,-0.5861,-0.5861,-0.5861,-0.5866,0,-0.5772,-0.5783,-0.5788,-0.5797,-0.5803,-0.5808,-0.5813,-0.582,-0.5825,-0.5831,-0.5836,-0.5843,-0.5844,-0.5847,-0.5851,-0.5857,-0.5861,-0.5857,-0.5866,-0.5867,-0.5865,-0.5867,-0.5866,-0.587,-0.5867,-0.5867,-0.5867,0,-0.5776,-0.5783,-0.5792,-0.5801,-0.5804,-0.5808,-0.5817,-0.5822,-0.583,-0.5833,-0.5839,-0.5843,-0.585,-0.585,-0.586,-0.5858,-0.5862,-0.5865,-0.5866,-0.5867,-0.5867,-0.5869,-0.5872,-0.5873,-0.5868,-0.5868,-0.5868,0,-0.5774,-0.5785,-0.5792,-0.5796,-0.5807,-0.581,-0.5815,-0.5823,-0.5827,-0.5834,-0.5838,-0.5845,-0.585,-0.5856,-0.5863,-0.5862,-0.5872,-0.5873,-0.5876,-0.5876,-0.5878,-0.5877,-0.5882,-0.588,-0.588,-0.588,-0.588,0,-0.5776,-0.5782,-0.5792,-0.5796,-0.5802,-0.5809,-0.5815,-0.582,-0.5827,-0.5833,-0.5838,-0.5844,-0.5852,-0.5858,-0.5863,-0.5871,-0.5873,-0.5876,-0.5878,-0.5876,-0.5876,-0.5879,-0.5879,-0.588,-0.588,-0.588,-0.588,0,-0.5775,-0.5782,-0.579,-0.58,-0.5802,-0.5806,-0.5815,-0.582,-0.5825,-0.5833,-0.5835,-0.5843,-0.5851,-0.5858,-0.5869,-0.5872,-0.5881,-0.5882,-0.5878,-0.5879,-0.5882,-0.5881,-0.5888,-0.589,-0.5886,-0.5886,-0.5886,0,-0.5776,-0.578,-0.5791,-0.5795,-0.58,-0.5806,-0.5811,-0.5818,-0.5823,-0.5833,-0.5837,-0.5845,-0.5852,-0.5865,-0.5872,-0.588,-0.5882,-0.5884,-0.5884,-0.5882,-0.5883,-0.5883,-0.5884,-0.5884,-0.5884,-0.5884,-0.5884,0,-0.5778,-0.5781,-0.5788,-0.5796,-0.5801,-0.5808,-0.5815,-0.5818,-0.5827,-0.5832,-0.584,-0.5846,-0.5857,-0.5865,-0.5875,-0.588,-0.5884,-0.5884,-0.5886,-0.5884,-0.5882,-0.5884,-0.5878,-0.5884,-0.5884,-0.5884,-0.5884,-0.5884,-0.5778,-0.5782,-0.579,-0.5798,-0.5804,-0.581,-0.5815,-0.5822,-0.5829,-0.5838,-0.5842,-0.5851,-0.5859,-0.5872,-0.5877,-0.5885,-0.5885,-0.5887,-0.5887,-0.5888,-0.5888,-0.5881,-0.5886,-0.5886,-0.5886,-0.5886,-0.5886,0,-0.578,-0.5786,-0.5793,-0.5802,-0.5808,-0.5811,-0.5819,-0.5824,-0.5832,-0.5839,-0.5846,-0.5856,-0.5865,-0.5873,-0.5882,-0.5886,-0.5888,-0.5889,-0.5889,-0.589,-0.5886,-0.5885,-0.5887,-0.5887,-0.5887,-0.5887,-0.5887,-0.5887,-0.5782,-0.579,-0.5794,-0.5805,-0.5811,-0.5819,-0.5824,-0.583,-0.5836,-0.5847,-0.5854,-0.5859,-0.5867,-0.5877,-0.5885,-0.5888,-0.5891,-0.5891,-0.5893,-0.589,-0.589,-0.589,-0.5888,-0.5891,-0.5891,-0.5897,-0.5897,-0.5897]},{"header":{"parameterUnit":"m.s-1","parameterCategory":1,"la1":30.2991,"la2":30.254,"lo1":-89.0895,"lo2":-89.0444,"dy":0.0017,"dx":0.0017,"nx":28,"ny":28,"refTime":"2023-08-24T03:00:00:Z","depth":0,"parameterNumber":3,"parameterNumberName":"V-component_of_WINDS"},"data":[0,0,0,0,0,0,0,0,0,0,0,0,0,0,0,0,0,0,0,0,0,0,0,0,0,0,0,0,0,0,0,0,0,0,0,0,0,0,0,0,0,0,0,0,0,0,0,0,0,0,0,0,0,0,0,0,0,0,-0.0296,-0.0297,0,-0.0384,-0.0385,-0.0386,-0.0439,-0.044,-0.044,-0.044,-0.0532,-0.0534,-0.0537,0,0,0,0,0,0,0,0,0,0,0,0,0,-0.0174,-0.0176,-0.0296,-0.0297,-0.0298,-0.0384,-0.0385,-0.0386,-0.0439,-0.044,-0.044,-0.044,-0.0532,-0.0534,-0.0537,0,0,0,0,0,0,0,0,0,0,0,0,0,-0.0241,-0.0177,-0.0295,-0.0335,-0.0339,-0.0384,-0.0385,-0.0387,-0.0439,-0.044,-0.044,-0.044,-0.0531,-0.0534,-0.0537,-0.055,0,0,-0.0547,-0.0549,0,0,0,0,0,0,0,0,-0.0237,-0.0246,-0.0328,-0.0332,-0.0337,-0.0401,-0.0376,-0.0442,-0.0439,-0.0401,-0.044,-0.044,-0.0488,-0.0495,-0.0511,-0.0555,-0.0559,-0.0548,-0.055,-0.0551,-0.0552,0,0,0,0,0,0,0,-0.0233,-0.0242,-0.0331,-0.0329,-0.0335,-0.0348,-0.0358,-0.0389,-0.0442,-0.0405,-0.0409,-0.0418,-0.0491,-0.0508,-0.0514,-0.056,-0.0548,-0.0551,-0.0553,-0.0554,-0.062,-0.062,0,0,0,0,0,0,-0.0222,-0.0238,-0.0328,-0.0333,-0.0287,-0.035,-0.0361,-0.038,-0.0442,-0.0451,-0.0418,-0.042,-0.0502,-0.051,-0.0517,-0.0537,-0.0551,-0.0554,-0.0556,-0.062,-0.062,-0.0619,0,0,0,0,0,0,-0.0219,-0.0229,-0.0324,-0.0287,-0.03,-0.0352,-0.0373,-0.0382,-0.0398,-0.0452,-0.0461,-0.0425,-0.0502,-0.0512,-0.0542,-0.0541,-0.0556,-0.0559,-0.062,-0.062,-0.062,-0.0577,0,0,0,0,0,0,-0.0215,-0.0228,-0.0233,-0.0287,-0.0302,-0.0347,-0.0373,-0.0383,-0.0404,-0.0408,-0.0461,-0.047,-0.0504,-0.0536,-0.0545,-0.0546,-0.0561,-0.0621,-0.062,-0.062,-0.0579,-0.0575,-0.0572,0,0,0,0,0,-0.0211,-0.0218,-0.0233,-0.0243,-0.0309,-0.0347,-0.0356,-0.0393,-0.0404,-0.041,-0.0444,-0.0468,-0.054,-0.0539,-0.0549,-0.0551,-0.0621,-0.062,-0.062,-0.058,-0.0576,-0.0572,0,0,0,0,0,0,-0.0163,-0.0225,-0.0243,-0.0267,-0.0301,-0.0356,-0.0364,-0.0387,-0.042,-0.0422,-0.0468,-0.048,-0.0505,-0.0531,-0.0529,-0.0567,-0.0583,-0.0584,-0.0549,-0.0546,-0.0543,-0.0536,-0.0564,0,0,0,0,0,-0.0155,-0.018,-0.0233,-0.025,-0.0266,-0.0312,-0.033,-0.0356,-0.0393,-0.0408,-0.0444,-0.048,-0.051,-0.0529,-0.056,-0.0582,-0.0595,-0.0589,-0.0585,-0.0583,-0.0583,-0.0598,-0.0596,-0.0618,-0.0618,-0.0618,0,0,-0.014,-0.0177,-0.019,-0.0241,-0.027,-0.0296,-0.0324,-0.0349,-0.0368,-0.0412,-0.0442,-0.047,-0.0513,-0.0538,-0.0552,-0.0561,-0.058,-0.0582,-0.0579,-0.0582,-0.0597,-0.0595,-0.0593,-0.0617,-0.0617,-0.0617,0,0,-0.0124,-0.0154,-0.0172,-0.0201,-0.0245,-0.0275,-0.0279,-0.033,-0.035,-0.0381,-0.0414,-0.0438,-0.0489,-0.0519,-0.054,-0.0536,-0.056,-0.0545,-0.0528,-0.0541,-0.054,-0.0538,-0.0537,-0.0536,-0.0545,-0.0545,-0.0545,0,-0.01,-0.0138,-0.0178,-0.0201,-0.0223,-0.0263,-0.0282,-0.0308,-0.036,-0.0374,-0.0384,-0.0449,-0.0481,-0.0514,-0.0513,-0.0529,-0.0536,-0.0539,-0.0537,-0.0536,-0.0535,-0.0535,-0.0534,-0.0543,-0.0543,-0.0544,-0.0544,0,-0.0106,-0.0133,-0.0141,-0.019,-0.0213,-0.0234,-0.0277,-0.0295,-0.0319,-0.0349,-0.038,-0.042,-0.0459,-0.0469,-0.0493,-0.0506,-0.0511,-0.0528,-0.0545,-0.053,-0.0531,-0.0531,-0.054,-0.0541,-0.0542,-0.0542,0,0,-0.0064,-0.0134,-0.0136,-0.0159,-0.0211,-0.0232,-0.0255,-0.0293,-0.0309,-0.0343,-0.0364,-0.0406,-0.0422,-0.0447,-0.0475,-0.0486,-0.0481,-0.0502,-0.0504,-0.0497,-0.0498,-0.0486,-0.0485,-0.0497,-0.0497,-0.0497,-0.0495,0,-0.0056,-0.0098,-0.0135,-0.0164,-0.0189,-0.0228,-0.0248,-0.0282,-0.031,-0.0336,-0.0368,-0.0397,-0.0416,-0.0431,-0.0444,-0.0479,-0.0482,-0.0479,-0.0517,-0.0518,-0.0506,-0.0485,-0.0472,-0.0468,-0.0495,-0.0495,-0.0495,0,-0.0053,-0.0086,-0.0117,-0.0167,-0.0179,-0.0196,-0.0234,-0.0258,-0.0298,-0.0318,-0.0345,-0.0374,-0.04,-0.0414,-0.0451,-0.0449,-0.0467,-0.0486,-0.0487,-0.0492,-0.0506,-0.049,-0.0467,-0.0467,-0.0496,-0.0496,-0.0496,0,-0.002,-0.0071,-0.0097,-0.0115,-0.0173,-0.0185,-0.0209,-0.0249,-0.027,-0.0304,-0.0318,-0.0354,-0.0374,-0.0402,-0.044,-0.0447,-0.0474,-0.0491,-0.0492,-0.0491,-0.0496,-0.0496,-0.0476,-0.0507,-0.0507,-0.0507,-0.0507,0,-0.0008,-0.0026,-0.0083,-0.0099,-0.012,-0.0162,-0.0182,-0.021,-0.0245,-0.0268,-0.0303,-0.0324,-0.0373,-0.0399,-0.0429,-0.0456,-0.0465,-0.0482,-0.049,-0.0479,-0.0477,-0.0492,-0.0493,-0.0507,-0.0507,-0.0507,-0.0507,0,0.0026,-0.0013,-0.0044,-0.0096,-0.0109,-0.0123,-0.0168,-0.0185,-0.0215,-0.0244,-0.0253,-0.03,-0.0333,-0.0374,-0.042,-0.044,-0.0464,-0.0476,-0.0451,-0.0455,-0.0454,-0.0454,-0.0444,-0.0445,-0.0474,-0.0474,-0.0474,0,0.0036,0.0021,-0.0033,-0.005,-0.0074,-0.0101,-0.0123,-0.0164,-0.0185,-0.0232,-0.0243,-0.0279,-0.031,-0.0361,-0.04,-0.0436,-0.0449,-0.0443,-0.0454,-0.0443,-0.0449,-0.0448,-0.045,-0.044,-0.0439,-0.0439,-0.0439,0,0.0057,0.0039,0.0009,-0.0027,-0.0051,-0.0082,-0.0114,-0.0126,-0.0175,-0.0197,-0.0231,-0.0254,-0.0301,-0.0337,-0.0377,-0.0404,-0.0429,-0.0435,-0.0437,-0.0426,-0.0411,-0.042,-0.0443,-0.0435,-0.0435,-0.0435,-0.0436,-0.0436,0.0079,0.0064,0.0023,-0.0008,-0.0037,-0.0066,-0.0085,-0.0117,-0.0146,-0.0187,-0.021,-0.0244,-0.0284,-0.0341,-0.0366,-0.0393,-0.0402,-0.0406,-0.0407,-0.0407,-0.0404,-0.0406,-0.0401,-0.0401,-0.0401,-0.0401,-0.0401,0,0.0098,0.007,0.0041,-0.0003,-0.0027,-0.0049,-0.0086,-0.0105,-0.0134,-0.0169,-0.0198,-0.0237,-0.0272,-0.0313,-0.0351,-0.0364,-0.0377,-0.0373,-0.0373,-0.0378,-0.0393,-0.0388,-0.0362,-0.0362,-0.0362,-0.0362,-0.0362,-0.0362,0.0104,0.0078,0.0055,0.0013,-0.0015,-0.0047,-0.0067,-0.0094,-0.0122,-0.0164,-0.0193,-0.0219,-0.0257,-0.0297,-0.033,-0.0341,-0.0354,-0.0346,-0.0361,-0.0374,-0.0377,-0.038,-0.0376,-0.0348,-0.0348,-0.0344,-0.0344,-0.0344]}]]